GFSWCAN_prec_cthk_357.txt.gz
RH
14 9 5 4 4 5 5 5 6 7 7 8 9 10 11 11 11 11 11 11 11 16 20 22 23 25 27 35 41 36 40 46 59 70 77 84 86 78 65 69 67 67 66 67 63 72 68 54 46 40 43 39 40 41
6 4 4 4 5 5 6 5 6 8 9 10 11 12 12 12 13 14 13 13 13 16 21 21 22 22 22 24 31 31 37 39 38 43 39 33 36 33 42 40 37 38 44 45 39 41 37 36 36 35 36 40 41 40
4 4 4 4 4 5 6 7 8 10 11 12 13 14 14 15 16 16 16 17 17 19 22 26 26 25 23 21 22 24 21 23 23 24 26 31 37 36 40 41 41 44 44 41 38 36 38 38 37 37 40 41 44 45
3 4 4 5 5 6 7 10 11 12 13 15 16 16 17 17 19 19 20 21 21 21 26 29 31 32 31 26 24 24 25 25 25 25 28 35 38 36 41 41 44 47 43 45 42 38 38 40 40 42 45 47 49 48
3 4 5 5 6 8 10 11 13 14 15 17 18 19 21 21 22 23 24 24 25 25 30 31 34 35 38 41 36 31 29 30 30 31 37 43 43 44 48 49 52 51 48 47 47 40 44 43 45 49 50 50 50 53
4 5 5 7 8 10 11 12 14 15 17 18 20 20 23 25 27 27 28 29 29 29 30 36 36 37 41 45 50 53 53 52 49 48 55 58 61 56 70 73 74 77 66 60 54 51 51 52 50 51 52 54 55 56
5 6 7 9 11 12 12 14 15 17 19 20 22 23 25 26 30 32 34 35 34 34 35 36 40 43 44 44 49 53 55 58 60 62 68 72 70 73 84 88 89 89 88 82 73 71 66 59 59 60 60 61 61 60
6 7 9 11 12 12 13 15 16 18 20 21 24 25 27 30 32 34 35 40 40 39 42 53 53 46 50 50 51 53 56 58 62 68 73 77 80 83 90 91 93 94 92 89 86 85 81 78 73 68 66 65 67 65
8 9 11 12 13 14 15 17 18 19 20 22 25 27 30 34 38 39 40 41 45 45 50 60 65 61 54 52 54 54 58 65 67 71 77 81 87 94 94 93 93 94 94 94 92 90 90 88 86 83 79 74 74 73
10 11 12 13 14 15 17 18 19 20 21 23 27 29 34 38 40 42 43 46 48 53 56 67 70 71 63 56 54 57 58 66 71 74 78 83 94 93 94 95 94 93 96 96 95 94 96 95 95 94 91 88 82 78
12 13 14 15 17 18 18 19 19 21 23 25 29 31 35 39 42 43 48 52 55 60 63 71 75 75 70 68 62 60 66 65 71 76 82 87 94 94 96 89 90 95 95 94 97 97 97 96 93 93 94 92 89 85
15 16 17 18 18 18 20 20 22 24 25 27 31 35 37 40 43 50 61 60 63 68 71 75 79 79 77 74 70 69 66 70 72 82 82 91 93 96 96 86 83 89 94 93 91 95 96 96 95 94 94 93 92 89
17 18 18 19 21 22 24 25 25 26 28 28 34 37 40 47 58 66 76 74 77 74 74 79 80 80 79 79 76 77 72 79 77 79 84 89 95 98 99 96 83 83 86 89 88 85 88 94 95 92 90 90 90 90
19 20 22 23 24 24 25 28 29 29 30 32 37 46 54 61 67 72 78 80 79 78 78 80 81 80 82 85 83 81 83 85 86 90 94 96 99 100 100 99 98 90 84 87 89 82 79 84 89 92 89 89 89 90
23 23 23 23 24 25 26 26 28 30 34 38 42 52 58 62 67 71 76 80 79 76 76 76 77 79 83 86 88 90 89 88 90 97 94 95 98 96 97 96 98 98 94 87 82 81 77 72 71 77 88 88 88 89
22 22 22 22 22 25 26 29 33 40 43 43 48 57 59 64 68 74 78 80 81 78 76 76 80 80 86 93 89 96 99 98 98 98 97 93 93 93 93 93 93 92 86 85 82 80 77 69 65 69 75 82 90 93
21 22 23 24 25 26 30 32 36 37 38 44 51 57 63 67 70 76 79 81 82 81 81 81 82 90 91 90 97 99 99 99 99 98 97 94 95 93 93 93 89 86 82 78 76 75 76 75 72 71 75 80 89 96
23 23 25 26 28 29 31 34 34 37 41 45 49 53 57 60 64 71 74 81 83 83 83 87 90 93 97 98 98 98 99 95 86 83 74 73 75 77 78 78 78 78 77 77 77 76 77 80 81 81 81 80 80 82
22 24 24 24 26 28 32 36 36 38 41 44 47 50 52 56 58 64 68 78 84 85 88 93 96 98 99 99 99 98 78 62 60 56 57 60 62 65 66 67 68 68 69 70 68 67 68 69 69 67 67 67 67 69
22 22 23 25 26 28 33 36 37 39 43 47 50 53 54 55 58 59 66 77 85 86 92 96 98 99 99 97 87 73 64 62 60 63 65 64 67 67 62 62 60 60 58 56 54 53 51 50 49 50 51 54 55 55
21 22 23 28 30 30 35 37 38 43 46 50 53 54 56 57 58 58 63 76 86 93 96 97 87 78 71 68 66 66 68 68 68 69 68 65 63 57 54 52 50 48 48 47 45 43 42 43 44 47 52 52 53 54
21 23 27 31 33 34 37 40 41 44 48 51 51 54 57 57 55 58 65 81 92 99 99 90 74 69 63 65 68 70 69 64 63 65 63 58 53 51 49 48 48 48 46 44 45 47 48 50 53 54 52 51 49 49
25 28 33 35 36 38 41 43 44 44 47 50 54 54 54 54 57 61 75 87 96 99 99 96 84 72 68 66 66 66 68 65 58 52 53 54 53 50 48 44 45 45 46 48 55 55 54 58 54 54 50 45 44 42
31 34 35 36 39 42 43 44 44 44 47 52 56 56 55 56 58 62 82 89 98 96 94 94 94 87 73 66 65 62 60 53 49 49 52 50 47 44 42 43 47 53 58 59 60 59 54 52 49 48 46 44 42 43
33 35 35 38 42 45 46 46 46 46 54 57 58 59 57 55 62 72 89 95 96 96 94 92 95 87 67 63 61 54 48 48 49 48 44 42 41 41 43 48 54 60 62 58 53 49 48 48 49 48 45 43 41 39
37 39 41 44 46 47 49 50 53 54 55 59 58 57 58 60 71 81 91 95 96 95 94 91 90 84 63 57 52 45 44 48 50 48 45 43 41 44 47 53 57 57 58 53 49 49 49 50 48 44 39 37 41 52
39 41 43 46 49 49 50 51 51 52 56 56 61 62 68 77 87 88 89 91 91 95 97 96 95 80 61 56 50 45 47 50 50 49 48 46 46 49 55 62 61 54 54 51 51 53 51 48 46 43 41 58 70 74
41 43 45 49 51 49 48 50 50 53 52 54 61 71 78 87 92 89 90 91 92 93 95 98 86 65 57 54 47 46 47 46 45 44 43 42 43 48 57 60 54 50 51 50 54 51 48 47 49 53 71 78 81 83
43 45 46 48 50 48 47 47 48 50 53 56 61 67 77 83 83 84 87 91 92 92 95 90 68 59 56 51 49 50 47 42 38 36 34 33 35 43 51 49 44 47 47 45 45 47 47 56 64 72 78 83 87 87
46 47 46 47 48 48 49 49 50 53 56 57 61 65 70 78 81 82 85 89 92 95 89 65 56 57 55 51 49 49 47 45 45 44 43 42 48 52 49 43 46 46 45 42 41 44 51 61 69 77 84 87 89 90
48 50 47 47 49 50 51 51 52 57 58 58 61 64 68 78 80 81 86 91 97 93 68 54 54 56 54 48 46 43 44 46 44 44 43 47 54 51 44 44 46 45 42 40 47 55 61 68 75 82 88 91 91 91
48 51 51 48 49 51 52 52 54 57 58 59 60 62 65 78 80 81 88 93 97 96 80 54 54 57 56 54 55 53 54 53 47 43 43 47 50 47 45 42 42 39 39 48 57 64 72 78 85 89 90 91 90 91
49 50 53 53 51 52 54 54 54 56 56 58 61 61 68 85 79 81 89 96 98 98 81 55 55 59 58 57 55 53 54 54 50 46 46 48 49 46 44 40 38 37 44 57 65 74 82 89 90 89 89 88 88 87

GFSWCAN_prec_cthk_363.txt.gz
RH
13 5 4 4 4 5 7 8 9 10 11 12 12 13 15 17 18 20 20 20 21 27 29 29 29 30 30 29 32 26 36 27 29 34 34 33 35 37 40 41 44 40 50 48 54 56 59 41 41 47 42 39 38 38
4 3 3 4 5 7 8 9 10 11 12 14 15 16 19 20 21 22 24 25 26 30 35 37 37 33 30 29 34 34 35 37 34 43 39 35 35 37 42 41 39 36 43 48 41 42 37 37 37 36 35 38 40 39
3 3 4 5 7 8 9 10 11 12 13 15 16 18 22 25 26 27 27 28 29 32 38 40 41 41 39 34 32 40 35 34 36 36 44 44 52 54 56 67 62 58 50 45 51 42 39 40 41 39 40 42 43 44
3 4 5 7 8 9 10 11 12 13 15 16 18 21 24 28 30 31 32 33 32 33 41 39 40 41 44 44 41 40 38 39 44 52 58 61 64 67 72 79 78 81 78 75 65 60 50 48 46 45 47 49 50 51
4 5 6 8 9 10 11 12 12 14 15 17 21 24 26 30 33 34 35 39 37 38 44 43 45 44 43 48 50 48 48 53 61 65 69 73 73 80 81 87 88 92 91 89 88 87 84 78 73 66 62 59 58 60
5 6 8 8 10 10 11 13 13 15 17 19 22 26 29 32 35 37 41 42 42 42 45 49 45 52 51 47 51 54 56 59 63 66 70 76 77 82 88 90 94 97 96 95 94 95 92 89 86 84 82 81 75 71
7 8 9 10 11 12 13 14 16 18 20 22 24 28 32 34 38 40 43 46 47 49 53 58 60 62 59 52 50 55 61 65 69 75 77 81 82 87 91 92 95 96 91 94 96 96 93 92 91 91 91 91 91 89
8 9 10 11 12 13 14 16 18 20 22 24 26 31 35 38 41 44 47 50 51 53 56 64 65 70 66 63 58 55 65 70 71 80 82 87 91 90 91 97 97 96 96 91 93 95 94 93 93 93 92 92 92 91
10 11 13 13 14 16 17 18 20 22 23 24 28 32 36 40 43 46 49 51 53 54 65 70 76 75 70 69 63 65 66 72 70 78 81 87 92 94 96 94 95 97 95 96 93 88 88 92 91 89 92 93 92 91
13 14 15 16 18 19 20 21 22 24 24 25 30 34 38 40 44 47 48 50 52 56 64 73 79 80 79 76 73 70 68 69 77 77 79 88 96 97 97 97 96 95 96 96 95 93 94 91 95 95 89 88 88 91
15 16 17 18 20 21 22 24 25 25 25 29 33 36 39 43 45 48 54 58 64 68 72 77 82 82 83 85 81 80 77 76 81 83 83 87 95 98 97 94 97 97 95 95 94 94 94 93 94 92 91 88 84 84
16 17 18 20 22 24 25 25 25 26 28 32 34 36 39 42 48 55 64 69 74 78 81 80 83 82 82 86 86 83 83 84 88 86 90 95 91 86 82 89 94 96 97 97 97 95 95 94 93 90 89 88 90 89
16 18 19 21 24 25 25 26 27 28 30 34 35 36 42 47 57 65 75 76 81 80 83 84 83 81 81 81 82 85 83 84 82 91 87 83 72 67 72 74 74 74 76 79 81 86 89 91 93 92 91 92 94 96
18 19 21 22 24 24 25 27 29 31 33 34 36 46 53 62 64 69 76 79 80 79 83 81 83 81 82 81 79 85 80 80 82 81 75 77 82 79 78 75 72 66 65 63 63 62 61 61 62 65 68 70 72 74
19 20 22 23 24 26 26 28 32 35 34 34 38 49 55 57 61 64 70 72 71 72 76 77 79 78 77 83 77 80 74 81 90 88 85 81 78 73 69 67 63 62 57 55 53 52 50 51 51 49 50 53 56 59
20 22 23 24 26 28 28 30 33 35 32 35 38 46 49 58 62 63 66 69 64 67 71 71 70 76 83 87 87 91 91 89 91 88 80 71 66 66 66 62 59 57 53 50 49 51 52 53 54 57 60 63 66 68
21 23 25 26 27 29 30 32 33 33 35 38 44 47 51 56 61 64 67 71 66 67 69 72 70 80 85 81 89 91 93 90 83 71 69 68 68 64 60 58 57 55 51 53 55 58 61 66 68 68 67 67 68 72
20 24 25 26 29 30 32 33 32 34 38 42 47 46 50 56 63 67 71 77 75 73 75 77 80 82 86 87 84 80 80 73 69 70 69 65 62 60 60 59 58 56 58 61 66 70 71 67 63 58 57 59 60 60
22 25 27 28 30 32 31 32 33 36 41 43 45 48 51 58 63 69 78 80 79 80 81 83 85 92 93 86 82 82 75 64 66 65 65 62 61 63 62 62 60 61 66 71 69 63 62 64 66 66 64 65 64 62
24 27 29 30 31 32 30 32 35 37 43 46 49 51 54 60 66 73 81 83 81 84 89 91 92 96 93 81 74 69 60 59 62 63 61 61 64 65 66 63 63 67 66 56 56 63 65 68 71 70 68 66 62 57
26 29 31 32 32 31 31 32 37 41 44 48 50 54 57 60 63 72 84 85 85 90 92 96 98 99 97 76 67 63 60 63 65 66 65 64 66 64 62 65 67 56 53 57 63 68 73 74 72 72 72 72 71 72
28 30 32 32 31 31 32 34 38 44 46 49 52 54 57 60 65 74 84 90 93 95 96 97 98 88 73 67 64 62 65 62 60 61 65 67 63 60 64 59 49 51 59 68 73 77 77 80 84 81 79 80 81 86
29 32 32 31 32 32 35 37 41 45 49 51 52 55 58 61 65 76 87 94 98 98 99 98 85 72 68 64 63 62 63 61 61 62 58 57 62 64 50 51 59 62 65 70 75 78 86 90 84 82 82 84 89 91
30 30 32 32 35 36 36 38 42 47 52 54 56 59 60 61 64 79 88 93 97 98 95 74 67 66 65 69 70 64 60 59 59 54 54 59 54 41 48 56 63 67 73 75 80 85 85 83 86 86 87 91 94 96
31 33 33 38 36 37 39 41 43 48 56 59 58 60 62 63 73 82 90 93 95 93 81 71 68 62 62 65 63 58 56 53 48 49 52 51 43 45 49 54 62 71 73 77 78 80 78 85 87 89 92 93 93 94
34 36 38 39 39 39 43 46 49 52 54 58 60 61 66 73 81 86 91 93 94 94 94 80 58 57 61 60 58 54 51 47 47 50 44 37 42 48 49 56 62 68 76 79 79 77 80 82 82 84 84 85 86 88
37 37 38 38 40 40 42 43 45 48 54 57 61 66 75 80 84 83 82 92 95 97 94 66 59 63 61 56 55 52 47 45 48 47 36 37 42 49 57 67 71 73 76 78 80 82 80 78 77 76 77 80 82 83
34 36 39 39 40 41 42 44 45 49 51 53 60 69 75 79 80 76 78 88 96 94 73 58 61 64 63 56 50 45 42 41 44 37 31 36 40 47 61 69 73 77 77 80 82 79 77 75 73 72 71 72 74 76
36 36 38 40 42 42 42 43 47 51 52 53 56 59 66 72 75 76 77 89 92 78 60 57 60 62 60 53 46 40 39 40 39 31 30 32 29 39 57 66 71 73 76 79 79 78 75 74 72 70 68 70 71 72
39 37 37 39 40 43 44 44 47 52 54 55 56 57 59 69 76 77 83 88 85 68 55 53 57 59 54 43 37 37 39 38 36 37 42 40 36 45 59 66 70 75 77 77 74 73 71 68 65 62 62 63 67 69
39 40 40 39 40 42 45 46 48 50 53 55 57 59 59 73 76 79 85 87 81 63 54 56 58 58 53 43 36 34 35 34 34 37 41 40 35 42 60 67 72 80 79 76 72 70 65 63 62 60 60 61 63 67
37 38 40 41 42 42 44 46 48 49 51 55 57 57 66 76 77 80 83 86 81 59 51 54 57 58 57 51 43 42 40 36 34 35 38 39 34 36 56 65 74 81 82 78 72 69 63 62 62 59 56 57 61 63
37 38 41 42 42 43 44 45 47 48 46 50 54 57 73 76 76 81 82 85 78 54 51 55 59 62 60 55 44 39 37 35 34 36 37 38 34 32 41 59 72 80 83 80 75 70 64 60 58 55 54 55 56 59

GFSWCAN_prec_cthk_369.txt.gz
RH
24 16 7 5 6 6 8 8 9 10 12 14 15 18 20 22 23 24 26 28 31 36 41 45 47 48 47 47 51 43 41 38 44 51 57 62 69 74 78 78 79 76 65 64 54 51 58 53 39 43 49 47 48 51
15 6 5 6 7 7 8 8 10 12 13 14 17 20 22 23 25 27 29 31 33 36 42 47 50 52 53 53 52 52 52 52 50 59 65 71 81 85 88 89 87 88 88 85 79 76 68 63 67 69 62 52 46 44
4 4 6 6 7 8 8 10 12 13 15 17 19 21 22 25 26 31 32 35 37 39 43 48 52 55 58 59 58 58 54 60 65 66 70 74 86 85 91 92 93 94 95 95 92 84 85 79 82 86 84 82 78 71
4 6 6 7 8 8 10 12 14 15 17 19 20 22 24 27 30 32 35 36 38 41 43 50 56 63 60 61 64 64 68 70 70 69 68 78 82 84 90 93 94 94 95 95 94 93 89 82 90 91 91 90 89 88
5 6 7 8 9 11 13 14 15 18 19 20 21 24 25 30 32 34 37 37 37 41 46 48 57 64 66 61 66 69 72 74 74 74 80 86 84 88 88 94 92 89 93 94 94 96 98 96 94 94 95 93 93 92
6 7 8 10 12 13 15 17 19 20 21 21 22 24 28 32 32 34 37 38 39 39 46 59 58 67 69 69 62 70 72 74 76 80 84 86 90 92 89 93 91 83 98 97 97 100 100 96 95 95 95 96 94 94
8 9 11 13 15 16 18 20 21 20 20 21 24 26 30 32 34 35 39 42 41 42 49 55 62 67 69 71 64 64 69 73 79 84 88 88 86 89 96 96 80 80 84 87 94 97 95 96 98 97 97 96 96 94
10 12 14 16 17 18 20 20 20 20 21 23 25 29 31 33 36 38 41 41 41 43 47 60 62 64 65 71 68 67 72 76 79 85 86 91 94 93 97 85 81 82 81 79 78 76 79 83 90 95 97 94 94 94
13 15 16 17 18 19 20 20 20 20 22 24 27 29 32 33 35 39 39 42 43 46 54 65 71 68 67 73 78 72 78 80 79 81 84 93 97 97 92 77 75 75 73 71 66 63 62 61 62 63 63 65 73 83
15 15 17 19 20 22 21 20 20 21 24 26 28 29 33 35 37 38 39 43 46 51 58 67 69 71 68 73 80 78 76 80 86 83 87 96 98 92 85 78 75 72 70 67 66 61 61 59 58 56 55 56 58 58
15 16 18 20 22 22 20 19 21 23 24 27 29 30 32 34 37 43 45 49 56 62 64 67 66 67 65 73 76 77 79 83 91 83 88 93 98 90 76 78 74 71 70 69 70 70 69 67 66 65 64 64 63 62
16 18 19 22 22 21 21 21 22 24 25 27 29 31 32 34 42 49 61 59 63 67 67 69 65 68 68 70 75 75 76 77 85 84 90 93 91 74 74 75 74 75 74 73 75 76 76 76 76 75 74 74 73 72
18 20 21 22 21 21 21 22 22 24 26 27 28 30 37 43 55 70 77 70 71 66 66 70 68 69 70 70 73 78 76 80 79 84 83 87 71 71 76 79 79 79 79 78 77 77 77 76 75 72 67 65 65 64
19 21 22 22 22 21 22 22 23 25 26 26 29 40 48 60 69 77 79 76 73 70 68 67 69 70 71 77 80 83 82 85 89 90 88 75 73 77 78 79 79 77 78 76 69 58 55 57 59 63 68 70 68 66
21 21 21 21 21 21 22 23 23 25 26 27 32 48 57 62 66 70 71 71 70 68 66 65 65 69 71 78 81 83 78 83 92 90 79 78 77 74 73 77 79 67 56 55 58 61 66 71 75 79 84 86 86 77
21 21 21 21 21 22 23 24 26 25 25 29 38 48 54 57 62 66 67 67 66 65 66 64 62 66 76 86 82 92 93 91 88 87 81 75 72 78 78 65 54 55 60 66 72 76 78 81 83 84 84 86 86 83
21 21 20 21 21 23 24 26 25 24 28 34 45 49 54 58 65 68 69 68 66 65 68 66 72 81 80 83 85 88 93 91 83 73 70 77 79 66 53 51 59 66 72 74 77 77 78 79 83 85 85 86 90 93
21 21 21 21 22 23 26 24 24 26 34 39 43 49 52 58 66 70 69 69 69 71 73 75 75 72 81 83 83 83 79 74 70 70 72 68 53 49 54 62 69 73 74 76 78 80 83 84 83 83 84 86 87 89
21 22 23 23 23 24 23 24 25 30 35 39 44 48 52 56 63 70 71 71 69 68 67 64 67 74 82 79 80 76 70 67 64 67 60 45 47 54 62 67 72 73 74 78 81 83 85 85 86 85 85 85 85 85
22 22 23 24 23 24 23 27 27 31 35 39 42 46 51 54 59 68 73 74 75 75 82 88 82 74 78 72 71 68 66 64 65 53 38 38 46 56 66 71 73 76 79 81 82 85 85 83 83 83 82 82 82 83
22 22 23 24 26 26 26 29 30 33 34 38 42 45 48 52 59 65 72 75 78 84 90 83 70 65 63 64 58 56 58 63 57 47 46 45 51 63 71 74 78 81 80 78 77 77 77 76 74 73 74 75 78 79
23 24 24 25 23 24 27 30 32 33 35 38 41 43 46 51 58 62 70 76 83 88 80 68 61 58 55 51 49 51 55 50 41 41 43 44 51 66 73 79 79 76 75 75 74 75 75 73 71 72 72 73 75 76
22 25 26 24 24 24 28 30 31 33 35 38 40 41 45 49 56 65 73 79 85 85 68 55 57 57 51 47 46 46 47 41 36 39 39 39 57 71 78 83 82 75 70 70 72 74 72 68 66 70 72 73 73 74
23 24 28 26 26 27 27 28 30 33 36 38 40 43 46 50 56 67 73 80 81 81 63 53 55 51 44 40 41 43 41 35 34 38 36 37 53 68 79 84 81 77 72 70 69 66 65 62 64 67 68 69 72 72
26 27 28 28 27 27 27 28 29 31 38 41 41 45 49 54 61 70 75 73 76 72 58 51 54 53 47 39 40 41 38 35 37 38 34 37 50 64 75 82 82 78 74 70 63 62 61 60 61 66 68 69 70 71
29 29 29 29 28 28 32 31 34 34 36 38 41 47 53 57 63 67 71 70 73 70 53 48 51 53 50 44 41 38 34 31 35 36 33 32 45 61 70 76 75 77 77 74 63 54 54 56 60 65 66 66 69 72
30 29 29 28 29 29 30 31 32 33 37 38 41 48 53 59 65 66 68 70 73 67 51 50 55 56 53 48 40 37 33 32 35 36 33 30 39 58 70 78 81 81 81 79 67 54 50 53 57 61 64 65 66 67
28 30 30 29 29 30 31 33 33 34 36 38 43 49 54 61 64 65 68 72 75 60 50 54 58 58 53 51 45 37 31 29 28 29 29 27 30 46 60 71 80 86 85 82 77 62 50 50 52 56 60 61 62 64
28 30 31 31 30 31 31 32 34 36 38 39 41 45 49 56 60 60 64 72 73 56 49 53 56 57 53 51 47 41 36 32 29 27 26 25 22 27 43 56 68 81 84 83 82 77 60 50 46 49 53 57 60 61
30 29 29 31 32 32 33 32 34 37 39 41 43 45 48 56 61 64 66 72 68 56 47 48 53 54 50 48 46 43 40 36 35 35 33 32 32 30 32 38 52 73 80 81 82 81 77 62 47 41 43 47 51 55
31 32 31 30 31 32 33 33 34 35 37 41 43 46 48 57 62 64 68 71 67 55 46 50 52 53 51 47 45 44 43 40 38 37 35 34 35 33 25 25 36 55 69 77 83 83 81 80 69 52 43 41 43 45
29 31 32 32 32 33 33 33 34 37 38 40 42 45 49 58 63 65 67 70 68 56 45 47 52 54 54 52 50 49 47 47 44 40 37 36 36 34 27 22 21 29 49 65 73 81 84 84 83 79 66 52 44 40
29 30 32 32 32 32 33 32 34 36 36 38 39 45 52 60 63 64 66 68 68 58 46 48 53 56 57 56 53 52 51 49 48 46 44 40 38 34 30 26 22 21 23 37 57 66 75 83 86 87 84 79 71 60

GFSWCAN_prec_cthk_372.txt.gz
RH
17 13 7 5 6 7 7 9 10 11 13 15 17 18 20 22 23 24 24 26 28 32 39 43 47 50 51 52 58 54 54 52 57 62 66 74 79 82 89 90 90 89 87 84 80 76 80 74 74 75 82 77 73 66
15 8 5 6 7 7 9 10 12 14 16 17 18 20 22 23 25 26 26 27 29 32 39 42 49 53 57 60 62 60 64 68 69 70 73 76 86 88 91 93 91 94 95 96 96 95 87 87 88 88 86 84 81 80
8 5 6 7 7 9 11 12 13 16 17 17 18 21 24 26 27 28 28 31 33 35 42 48 52 53 57 63 67 66 68 72 74 75 75 80 86 89 93 93 88 94 99 99 97 91 92 93 95 95 94 93 90 87
5 6 7 7 9 11 12 14 16 17 17 17 20 23 26 27 28 30 31 33 36 36 40 51 58 58 60 64 70 75 76 76 74 74 75 84 86 86 95 94 90 91 95 98 96 95 91 90 94 99 99 97 96 95
6 7 7 9 11 13 14 17 18 17 17 18 21 25 28 28 29 31 34 35 35 37 41 49 58 60 62 64 71 75 76 78 78 75 78 83 87 92 86 96 91 90 90 92 90 92 96 97 99 99 98 99 98 98
7 8 10 12 13 15 17 18 17 16 18 20 24 26 28 29 30 32 34 35 37 39 42 51 54 60 63 65 65 73 73 78 81 80 82 84 90 90 87 87 83 85 83 84 84 83 79 76 77 87 95 99 99 99
9 11 12 13 15 17 17 16 15 17 19 22 26 27 29 31 33 34 38 40 37 39 41 49 55 60 63 61 63 66 71 76 81 82 87 87 85 92 92 85 84 83 80 75 76 75 68 67 68 63 65 66 68 78
12 13 13 14 16 17 16 15 16 18 20 23 26 28 30 32 34 35 36 38 35 38 40 51 56 55 64 67 69 72 79 78 78 84 88 92 93 92 90 82 82 80 77 74 74 73 74 72 69 65 64 62 61 59
13 14 15 16 17 16 15 16 17 19 21 24 26 28 30 33 34 35 36 38 38 37 48 56 64 60 62 67 73 73 72 79 77 78 86 96 97 98 92 81 82 81 80 79 78 78 78 79 78 77 75 73 72 70
14 15 17 18 17 16 16 17 18 20 22 24 25 27 29 33 35 35 36 38 40 46 52 60 63 65 63 66 68 68 73 79 86 86 85 97 100 98 86 86 86 87 87 87 83 78 78 78 79 78 78 78 77 77
15 17 18 17 17 17 16 18 19 20 21 24 25 26 29 32 35 38 43 46 51 56 57 60 63 66 64 68 72 71 73 75 87 86 91 96 98 87 83 85 86 86 86 86 85 80 74 68 63 60 60 60 61 62
17 18 17 17 17 17 17 18 19 20 21 23 25 26 29 35 40 45 56 55 61 65 60 60 62 64 67 68 72 74 77 80 85 87 91 94 87 79 81 82 84 80 68 59 58 58 60 64 67 68 70 71 72 71
18 18 17 17 17 18 18 18 19 20 21 21 22 27 34 41 54 65 73 67 69 65 61 62 61 63 64 67 72 79 79 82 81 82 83 84 77 84 80 70 59 56 58 62 67 72 75 76 79 80 81 84 87 87
17 17 17 17 18 18 18 18 19 19 19 20 25 38 46 57 63 68 71 70 68 66 63 62 61 62 63 71 71 76 71 68 77 86 81 80 82 71 63 57 60 64 71 74 76 76 76 77 79 82 84 85 85 86
17 17 17 17 19 18 19 18 19 18 19 22 29 45 54 57 59 60 62 63 63 62 61 60 58 58 62 72 71 73 75 75 83 90 86 79 67 59 57 64 72 75 76 77 77 78 80 81 83 84 84 86 86 86
17 17 17 18 19 19 19 19 19 18 20 27 35 44 49 53 54 56 58 59 58 59 60 57 56 61 71 76 73 82 81 84 84 84 77 62 54 58 67 75 78 79 78 80 82 83 83 84 84 84 82 83 87 87
18 18 18 18 19 20 19 20 18 19 24 32 41 43 49 53 55 56 55 51 51 56 63 59 58 63 67 69 69 71 79 80 79 67 57 56 58 66 73 78 79 78 81 81 80 82 83 83 82 81 80 77 83 83
19 19 19 19 19 20 21 19 19 22 29 35 39 41 47 52 58 59 60 60 60 62 60 60 61 57 65 67 64 64 69 71 67 53 49 50 61 70 77 79 80 83 81 81 82 81 80 79 76 73 73 72 74 77
20 20 20 19 19 20 18 19 21 25 30 34 37 41 45 50 57 61 64 63 62 59 58 58 58 62 65 64 64 65 66 62 46 39 42 50 62 73 77 82 85 81 76 76 75 75 73 70 71 71 73 74 74 75
20 21 21 20 19 19 20 22 23 26 29 33 36 40 44 49 54 60 64 63 59 58 60 64 66 62 56 55 57 61 58 49 40 37 40 48 63 73 79 85 84 76 72 69 66 66 65 65 67 72 75 74 74 75
20 20 21 22 23 22 21 24 25 27 29 32 36 38 42 48 53 60 64 66 65 69 67 62 62 53 49 48 51 51 45 38 38 44 44 48 62 74 81 84 83 78 72 63 62 64 64 64 69 72 71 73 73 72
22 21 21 21 21 23 24 26 27 28 31 33 35 38 40 45 51 57 63 68 72 72 68 59 56 53 47 45 45 42 36 34 36 37 38 47 59 70 77 82 82 79 73 62 61 63 62 64 69 70 70 72 72 73
21 23 22 21 21 21 25 26 27 30 30 34 35 36 40 44 50 59 66 69 71 71 63 54 55 54 50 48 43 36 31 31 33 32 31 38 55 69 79 84 82 79 76 68 60 56 57 63 66 66 67 70 73 75
20 23 24 23 23 24 24 25 27 29 31 33 35 37 42 47 51 59 66 71 67 67 58 51 53 52 48 46 43 36 31 31 33 31 29 32 43 58 74 78 80 80 80 76 63 52 53 59 62 64 66 67 69 71
24 24 24 25 24 24 24 25 26 28 34 36 36 40 44 49 56 62 67 66 65 63 55 49 51 51 49 47 44 38 35 33 34 33 30 29 36 48 60 75 81 79 80 78 71 52 49 53 58 64 64 65 68 70
27 26 25 26 26 26 28 28 30 30 31 33 36 41 47 51 56 59 62 61 63 62 51 47 50 51 50 49 46 40 36 36 35 33 31 29 30 38 49 57 66 78 81 82 80 64 49 47 53 58 59 61 64 66
28 27 27 26 26 26 28 28 30 31 34 34 36 43 47 54 57 57 59 60 64 60 51 48 51 53 52 51 49 46 41 38 37 35 32 30 29 31 41 52 60 72 82 87 83 78 61 49 46 49 53 56 58 59
28 28 28 28 28 27 27 29 30 32 33 35 39 44 47 54 56 57 58 61 64 58 51 50 55 56 52 52 50 48 46 41 37 33 32 30 30 30 30 37 50 66 76 83 85 83 79 67 48 43 43 46 50 53
29 29 29 29 28 28 27 28 30 33 35 37 38 41 44 48 53 54 59 62 64 57 51 54 58 59 56 52 50 48 46 44 42 37 35 33 28 28 28 26 26 41 66 73 79 87 86 82 75 55 44 40 41 43
28 28 29 30 30 30 30 29 31 33 35 37 39 41 43 48 54 58 59 62 62 55 48 47 53 56 57 54 50 49 47 45 46 45 43 41 39 36 34 27 22 22 32 56 67 76 84 88 88 84 71 52 42 38
28 27 28 28 30 31 31 30 33 33 34 37 39 41 44 49 56 59 61 63 62 56 48 47 52 55 56 54 51 49 48 48 48 49 49 48 45 44 38 33 28 23 22 23 36 58 67 76 85 88 88 83 74 61
27 29 29 29 30 30 32 32 33 35 35 36 39 41 45 52 57 58 60 63 63 58 47 46 51 55 57 57 56 53 51 50 51 50 49 49 50 49 43 40 35 30 26 23 22 23 31 50 65 76 86 90 88 84
26 28 29 31 31 31 34 34 33 35 36 36 38 40 45 53 57 57 59 63 64 61 49 45 49 54 58 60 62 61 57 55 55 54 52 52 51 52 49 46 42 39 35 31 27 23 22 22 26 37 57 74 87 91

GFSWCAN_prec_cthk_375.txt.gz
RH
18 14 13 7 6 7 9 11 13 15 15 14 16 17 19 20 21 21 22 23 25 30 38 41 46 51 54 56 65 62 62 64 65 70 76 85 84 81 87 87 93 92 93 93 93 92 92 92 85 86 88 88 89 90
15 10 6 6 7 9 10 13 14 15 13 15 17 19 20 21 22 23 23 25 27 30 39 44 48 52 57 65 66 65 70 73 74 76 80 85 91 93 93 90 86 94 95 96 98 97 99 97 99 98 96 94 91 89
9 7 7 7 9 11 13 15 15 14 13 16 19 21 22 23 24 25 25 27 28 32 42 49 50 51 59 67 73 73 71 71 73 76 76 80 89 92 95 95 89 88 94 95 96 92 91 95 97 94 99 98 97 96
12 7 8 10 11 13 15 15 14 13 14 17 20 21 22 23 25 26 26 27 30 30 40 52 54 56 58 65 72 77 78 73 71 72 77 86 82 80 93 93 91 92 89 88 85 81 76 81 78 82 85 91 99 99
7 8 10 11 13 15 15 14 13 14 16 19 21 22 24 24 25 26 27 28 30 31 38 46 54 55 59 62 70 74 78 77 73 73 78 84 88 84 83 89 88 90 88 87 86 82 84 77 74 75 74 71 73 78
8 11 12 14 14 14 14 13 13 15 17 19 21 23 24 23 23 26 26 27 30 32 35 45 50 58 59 57 64 71 71 79 80 79 80 85 93 88 85 94 88 92 90 92 90 88 85 80 78 78 76 74 71 70
11 12 13 14 13 13 12 13 14 15 18 19 21 22 23 24 24 25 30 29 28 29 32 42 49 54 62 60 64 69 78 78 79 85 89 92 94 96 91 94 89 89 89 89 91 90 85 84 85 84 84 81 79 75
13 14 14 14 13 12 12 13 15 15 17 19 20 21 23 26 26 28 29 29 27 30 33 48 52 52 58 63 69 69 77 75 79 82 90 96 95 87 92 92 88 89 88 89 90 90 86 83 81 80 80 78 78 78
14 14 14 13 12 12 13 14 15 15 17 18 20 21 23 26 28 29 31 30 32 32 43 54 63 60 56 58 63 64 70 77 78 86 87 95 92 94 94 90 88 86 79 67 60 57 56 57 55 58 58 59 62 63
15 15 14 13 12 13 14 14 14 15 16 16 17 19 22 26 28 28 30 32 34 39 49 56 59 64 58 61 67 66 68 76 82 89 85 95 97 94 90 81 73 62 60 62 63 64 67 70 72 72 72 72 71 70
15 14 13 13 13 13 14 14 14 15 16 16 17 20 24 27 28 31 36 40 46 52 55 56 58 58 57 62 66 66 74 74 82 90 95 95 93 83 75 67 61 66 72 77 79 81 81 79 77 76 76 77 77 78
15 14 13 13 13 14 13 13 14 14 15 15 17 20 23 28 32 37 50 51 56 58 56 56 55 56 55 56 62 65 72 75 80 82 90 91 79 73 67 65 70 77 79 79 80 80 80 81 81 81 82 81 81 81
14 13 14 14 14 14 13 14 14 14 14 15 18 23 29 31 41 55 65 62 63 57 55 57 54 51 54 56 64 68 67 68 69 75 75 72 64 64 68 74 78 81 81 80 80 81 81 81 83 84 83 84 83 85
13 14 15 14 14 14 14 14 14 14 14 16 23 33 39 47 52 58 62 61 59 58 56 53 51 50 53 58 58 64 63 63 69 76 68 59 62 66 75 81 82 80 81 80 79 79 81 81 80 81 82 82 79 83
14 15 15 15 14 15 14 14 14 14 15 20 28 40 45 45 47 47 47 51 54 57 54 49 48 47 51 56 56 66 67 68 76 70 56 58 64 73 78 81 83 85 80 79 79 78 77 77 76 74 69 70 75 79
15 15 15 16 15 15 15 15 15 16 20 25 32 38 42 45 46 47 48 51 47 50 52 48 43 44 54 58 56 75 75 73 62 54 56 60 67 74 79 84 89 86 80 77 75 75 77 74 72 72 73 75 75 77
15 15 16 16 16 16 16 16 16 18 24 29 37 40 44 45 47 49 50 45 42 46 53 52 51 53 49 53 60 65 71 61 54 50 51 59 67 74 80 88 89 87 80 73 73 69 64 64 67 71 74 75 76 73
16 16 16 15 16 17 17 17 17 21 27 32 35 38 43 44 46 45 43 42 42 46 50 52 54 51 60 63 60 57 59 48 43 44 46 55 66 76 84 87 91 90 79 71 64 62 63 66 70 71 72 73 70 74
18 18 17 16 16 17 17 18 19 23 27 30 33 37 40 43 47 49 48 43 43 46 45 48 53 57 63 62 61 56 48 41 38 37 40 49 63 75 81 87 89 87 79 63 56 60 65 67 69 71 71 73 74 72
19 19 18 17 16 18 19 20 21 23 27 29 33 36 39 42 46 50 51 49 47 48 49 53 55 56 58 55 54 49 41 37 40 38 35 42 54 66 77 87 89 86 79 61 55 59 61 64 67 69 71 74 76 74
19 20 21 21 21 20 20 21 22 24 26 29 31 34 36 39 44 50 53 53 52 58 59 54 53 50 52 52 50 42 34 34 39 41 37 37 47 58 70 85 89 86 80 66 56 54 59 64 65 69 71 73 75 75
20 19 20 20 21 22 22 22 24 25 28 29 31 33 34 37 41 48 52 55 60 62 61 52 48 49 50 50 46 40 34 34 35 34 33 33 37 49 60 76 85 85 81 74 60 53 54 60 65 66 69 71 73 75
21 21 21 20 21 21 24 24 25 26 26 29 31 31 34 38 41 49 54 56 58 57 58 50 49 50 51 51 48 42 37 36 35 33 31 28 30 43 58 68 78 83 83 82 70 54 48 55 59 63 63 64 68 70
20 21 24 22 22 23 23 24 25 26 28 30 31 32 36 40 44 50 53 56 57 58 53 48 51 50 49 48 46 43 40 39 38 36 33 29 27 30 45 57 65 79 86 85 81 67 48 47 51 56 58 59 60 62
23 24 23 24 23 23 23 25 26 27 32 33 34 36 40 44 49 53 56 55 56 57 53 47 49 49 48 47 46 44 42 42 41 39 37 33 30 26 29 44 57 65 77 84 85 82 65 48 46 49 52 54 56 58
27 26 24 25 24 23 25 26 29 30 30 33 34 38 43 46 48 50 52 54 54 55 51 47 49 51 49 48 46 44 43 43 44 43 41 39 37 33 29 29 36 49 64 74 86 86 84 70 53 45 43 46 49 51
28 26 27 26 24 25 26 26 28 29 34 34 35 41 44 49 52 49 52 53 53 55 49 45 48 53 53 51 50 49 47 46 45 46 47 44 42 40 36 31 29 30 43 67 72 80 86 84 79 64 48 43 42 44
28 27 26 27 26 26 26 27 27 31 32 34 37 41 44 49 50 51 51 53 54 54 50 46 46 52 56 55 53 53 53 50 49 50 49 47 45 43 41 37 34 27 25 29 56 68 74 80 86 85 79 62 48 42
29 29 27 27 27 27 27 28 29 31 33 35 37 39 40 43 47 50 52 55 57 55 51 46 50 54 56 56 56 54 53 52 49 47 46 47 46 46 44 42 41 32 26 23 24 29 54 68 76 85 88 86 81 68
28 27 27 28 28 29 29 29 31 32 33 35 37 38 40 42 45 50 53 55 57 56 52 47 49 54 59 61 60 58 55 54 53 51 49 50 51 52 50 49 46 42 37 30 26 24 23 25 37 61 76 86 91 90
27 26 25 27 29 31 30 30 32 33 33 34 36 39 40 42 45 50 52 54 57 57 53 46 46 50 55 59 63 63 62 60 58 56 56 55 55 54 55 55 53 49 45 42 37 31 28 27 24 22 24 39 64 84
26 25 27 27 28 30 30 31 32 32 34 34 34 37 40 42 46 51 52 53 56 58 55 49 47 50 53 55 58 60 62 63 63 62 63 61 60 59 58 58 57 56 54 50 46 43 36 31 30 30 28 25 23 26
24 26 27 28 30 30 30 32 33 33 34 35 37 37 39 41 47 52 52 53 55 57 56 49 49 50 53 55 58 61 64 67 69 68 68 68 67 66 64 62 60 58 58 58 56 52 47 42 36 32 31 31 30 27